FW7853 Weather Reports


Display with metric or nautical units.
time (UTC)temp
F
wind
direction
speed
MPH
gust
MPH
rain 1hr
in
rain 24hr
in
rain mn
in
humidity
%
barometer
mb
20260906183109 72 132 0.0 1.0 0.00 0.00 0.00 85 1019.5
20260906182604 72 157 0.0 0.0 0.00 0.00 0.00 85 1019.3
20260906182100 73 132 0.0 1.0 0.00 0.00 0.00 83 1019.5
20260906181555 73 169 0.0 1.0 0.00 0.00 0.00 82 1019.4
20260906181051 72 168 1.0 1.0 0.00 0.00 0.00 82 1019.4
20260906180551 73 82 1.0 1.0 0.00 0.00 0.00 82 1019.4
20260906180050 73 60 1.0 1.0 0.00 0.00 0.00 81 1019.4
20260906175549 73 131 1.0 1.0 0.00 0.00 0.00 81 1019.6
20260906175044 73 68 0.0 1.0 0.00 0.00 0.00 81 1019.3
20260906174542 73 200 1.0 1.0 0.00 0.00 0.00 82 1019.4
20260906174037 74 145 1.0 2.0 0.00 0.00 0.00 79 1019.7
20260906173532 74 241 0.0 0.0 0.00 0.00 0.00 81 1019.7
20260906173029 73 136 1.0 1.0 0.00 0.00 0.00 81 1019.5
20260906172522 74 89 1.0 1.0 0.00 0.00 0.00 82 1019.6
20260906172018 73 143 0.0 0.0 0.00 0.00 0.00 83 1019.6
20260906171513 74 140 1.0 1.0 0.00 0.00 0.00 80 1019.6
20260906171008 73 254 0.0 1.0 0.00 0.00 0.00 80 1019.6
20260906170504 73 128 1.0 1.0 0.00 0.00 0.00 80 1019.4
20260906170002 73 209 0.0 0.0 0.00 0.00 0.00 85 1019.5
20260906165500 73 194 0.0 1.0 0.00 0.00 0.00 82 1019.4
20260906164955 73 156 0.0 1.0 0.00 0.00 0.00 79 1019.5
20260906164454 73 146 0.0 0.0 0.00 0.00 0.00 82 1019.6
20260906163951 74 210 1.0 1.0 0.00 0.00 0.00 79 1019.7
20260906163446 73 195 0.0 0.0 0.00 0.00 0.00 78 1019.8
20260906162944 74 104 1.0 2.0 0.00 0.00 0.00 78 1019.8
20260906162443 73 191 0.0 0.0 0.00 0.00 0.00 78 1019.7
20260906161937 73 138 0.0 0.0 0.00 0.00 0.00 79 1019.6
20260906161432 74 171 0.0 0.0 0.00 0.00 0.00 79 1019.7
20260906160931 73 193 0.0 1.0 0.00 0.00 0.00 80 1019.7
20260906160424 73 203 0.0 0.0 0.00 0.00 0.00 78 1019.9
20260906155923 74 135 0.0 1.0 0.00 0.00 0.00 80 1019.6
20260906155422 74 160 0.0 0.0 0.00 0.00 0.00 79 1019.9
20260906154919 74 171 0.0 0.0 0.00 0.00 0.00 79 1019.8
20260906154413 74 141 0.0 0.0 0.00 0.00 0.00 77 1019.7
20260906153912 75 178 0.0 0.0 0.00 0.00 0.00 75 1019.7
20260906153410 76 186 0.0 0.0 0.00 0.00 0.00 69 1019.8
20260906152906 76 185 0.0 0.0 0.00 0.00 0.00 65 1019.9
20260906152401 76 173 1.0 1.0 0.00 0.00 0.00 63 1020.0
20260906151900 77 182 0.0 0.0 0.00 0.00 0.00 65 1020.0
20260906151355 75 181 0.0 0.0 0.00 0.00 0.00 66 1020.0
20260906150851 75 206 0.0 1.0 0.00 0.00 0.00 70 1020.3
20260906150346 75 171 0.0 0.0 0.00 0.00 0.00 73 1020.2
20260906145845 74 181 0.0 1.0 0.00 0.00 0.00 73 1020.2
20260906145344 75 227 0.0 0.0 0.00 0.00 0.00 72 1020.0
20260906144839 74 199 0.0 0.0 0.00 0.00 0.00 72 1020.0
20260906144335 72 167 0.0 0.0 0.00 0.00 0.00 76 1020.0
20260906143835 72 150 0.0 0.0 0.00 0.00 0.00 75 1020.4
20260906143331 72 110 0.0 0.0 0.00 0.00 0.00 76 1020.2
20260906142827 72 133 0.0 0.0 0.00 0.00 0.00 80 1020.2
20260906142321 72 153 0.0 0.0 0.00 0.00 0.00 77 1020.0
20260906141821 72 141 0.0 0.0 0.00 0.00 0.00 77 1020.4
20260906141315 73 167 0.0 0.0 0.00 0.00 0.00 76 1020.2
20260906140814 73 165 0.0 0.0 0.00 0.00 0.00 75 1020.4
20260906140309 72 158 0.0 0.0 0.00 0.00 0.00 78 1020.4
20260906135807 72 160 0.0 0.0 0.00 0.00 0.00 76 1020.0
20260906135305 72 154 0.0 0.0 0.00 0.00 0.00 78 1020.2
20260906134757 71 157 0.0 0.0 0.00 0.00 0.00 79 1020.5
20260906134252 69 166 0.0 0.0 0.00 0.00 0.00 80 1019.9
20260906133748 69 189 0.0 0.0 0.00 0.00 0.00 81 1020.2
20260906133243 67 163 0.0 0.0 0.00 0.00 0.00 87 1020.0
20260906132739 66 171 0.0 0.0 0.00 0.00 0.00 89 1020.0
20260906132234 64 168 0.0 0.0 0.00 0.00 0.00 91 1019.9
20260906131730 62 173 0.0 0.0 0.00 0.00 0.00 96 1020.0
20260906131224 60 182 0.0 0.0 0.00 0.00 0.00 99 1019.9
20260906130720 58 173 0.0 0.0 0.00 0.00 0.00 99 1019.9
20260906130215 56 238 0.0 0.0 0.00 0.00 0.00 99 1020.2
20260906125713 55 237 0.0 0.0 0.00 0.00 0.00 99 1020.2
20260906125212 55 202 0.0 0.0 0.00 0.00 0.00 99 1019.9
20260906124707 54 217 0.0 0.0 0.00 0.00 0.00 99 1020.0
20260906124203 54 217 0.0 0.0 0.00 0.00 0.00 99 1019.9
20260906123701 53 193 0.0 0.0 0.00 0.00 0.00 99 1019.9
20260906123157 53 193 0.0 0.0 0.00 0.00 0.00 99 1020.3
20260906122655 52 223 0.0 0.0 0.00 0.00 0.00 99 1020.2
20260906122151 52 226 0.0 0.0 0.00 0.00 0.00 99 1019.9
20260906121648 52 209 0.0 0.0 0.00 0.00 0.00 99 1019.9
20260906121144 52 193 0.0 0.0 0.00 0.00 0.00 99 1020.0
20260906120639 51 180 0.0 0.0 0.00 0.00 0.00 99 1020.0
20260906120136 51 178 0.0 0.0 0.00 0.00 0.00 99 1019.8
20260906115636 51 193 0.0 0.0 0.00 0.00 0.00 99 1019.9
20260906115132 51 193 0.0 0.0 0.00 0.00 0.00 99 1019.8
20260906114625 51 181 0.0 0.0 0.00 0.00 0.00 99 1019.7
20260906114121 51 187 0.0 0.0 0.00 0.00 0.00 99 1019.7
20260906113621 51 193 0.0 0.0 0.00 0.00 0.00 99 1019.7
20260906113121 51 219 0.0 0.0 0.00 0.00 0.00 99 1020.0
20260906112620 51 193 0.0 0.0 0.00 0.00 0.00 99 1019.8
20260906112117 51 200 0.0 0.0 0.00 0.00 0.00 99 1019.6
20260906111616 51 197 0.0 0.0 0.00 0.00 0.00 99 1019.3
20260906111111 51 189 0.0 0.0 0.00 0.00 0.00 99 1019.4
20260906110606 51 214 0.0 0.0 0.00 0.00 0.00 99 1019.4
20260906110100 51 193 0.0 0.0 0.00 0.00 0.00 99 1019.3
20260906105554 51 187 0.0 0.0 0.00 0.00 0.00 99 1019.4
20260906105051 51 211 0.0 0.0 0.00 0.00 0.00 99 1019.4
20260906104549 51 196 0.0 0.0 0.00 0.00 0.00 99 1019.2
20260906104044 51 189 0.0 0.0 0.00 0.00 0.00 99 1019.2
20260906103542 51 193 0.0 0.0 0.00 0.00 0.00 99 1019.3
20260906103038 51 184 0.0 0.0 0.00 0.00 0.00 99 1019.2
20260906102537 51 189 0.0 0.0 0.00 0.00 0.00 99 1019.4
20260906102032 51 210 0.0 0.0 0.00 0.00 0.00 99 1019.5
20260906101527 51 258 0.0 0.0 0.00 0.00 0.00 99 1019.4
20260906101022 51 257 0.0 0.0 0.00 0.00 0.00 99 1019.3
20260906100518 51 193 0.0 0.0 0.00 0.00 0.00 99 1019.3
20260906100012 52 180 0.0 0.0 0.00 0.00 0.00 99 1019.3
20260906095507 52 188 0.0 0.0 0.00 0.00 0.00 99 1019.3
20260906095002 52 207 0.0 0.0 0.00 0.00 0.00 99 1019.4
20260906094501 52 194 0.0 0.0 0.00 0.00 0.00 99 1019.5
20260906093957 52 193 0.0 0.0 0.00 0.00 0.00 99 1019.2
20260906093453 52 189 0.0 0.0 0.00 0.00 0.00 99 1019.4
20260906092954 52 246 0.0 0.0 0.00 0.00 0.00 99 1019.5
20260906092453 52 213 0.0 0.0 0.00 0.00 0.00 99 1019.3
20260906091949 52 196 0.0 0.0 0.00 0.00 0.00 99 1019.4
20260906091444 52 205 0.0 0.0 0.00 0.00 0.00 99 1019.3
20260906090941 52 219 0.0 0.0 0.00 0.00 0.00 99 1019.5
20260906090436 52 225 0.0 0.0 0.00 0.00 0.00 99 1019.1
20260906085935 52 215 0.0 0.0 0.00 0.00 0.00 99 1019.3
20260906085435 52 202 0.0 0.0 0.00 0.00 0.00 99 1019.4
20260906084934 52 179 0.0 0.0 0.00 0.00 0.00 99 1019.1
20260906084430 52 188 0.0 0.0 0.00 0.00 0.00 99 1019.0
20260906083928 52 210 0.0 0.0 0.00 0.00 0.00 99 1019.1
20260906083424 52 219 0.0 0.0 0.00 0.00 0.00 99 1019.0
20260906082923 52 188 0.0 0.0 0.00 0.00 0.00 99 1019.0
20260906082419 52 215 0.0 0.0 0.00 0.00 0.00 99 1019.1
20260906081914 53 206 0.0 0.0 0.00 0.00 0.00 99 1018.8
20260906081410 53 190 0.0 0.0 0.00 0.00 0.00 99 1019.0
20260906080906 53 195 0.0 0.0 0.00 0.00 0.00 99 1018.8
20260906080402 53 194 0.0 0.0 0.00 0.00 0.00 99 1018.8
20260906075901 53 199 0.0 0.0 0.00 0.00 0.00 99 1019.0
20260906075356 53 196 0.0 0.0 0.00 0.00 0.00 99 1019.0
20260906074852 53 222 0.0 0.0 0.00 0.00 0.00 99 1019.2
20260906074351 53 192 0.0 0.0 0.00 0.00 0.00 99 1018.9
20260906073850 53 214 0.0 0.0 0.00 0.00 0.00 99 1019.1
20260906073345 53 203 0.0 0.0 0.00 0.00 0.00 99 1018.9
20260906072842 53 196 0.0 0.0 0.00 0.00 0.00 99 1019.0
20260906072337 53 192 0.0 0.0 0.00 0.00 0.00 99 1018.9
20260906071833 53 203 0.0 0.0 0.00 0.00 0.00 99 1018.9
20260906071328 53 196 0.0 0.0 0.00 0.00 0.00 99 1018.9
20260906070824 53 178 0.0 0.0 0.00 0.00 0.00 99 1019.0
20260906070319 53 215 0.0 0.0 0.00 0.00 0.00 99 1019.0
20260906065814 54 207 0.0 0.0 0.00 0.00 0.00 99 1018.8
20260906065309 54 211 0.0 0.0 0.00 0.00 0.00 99 1018.6
20260906064805 54 239 0.0 0.0 0.00 0.00 0.00 99 1018.7
20260906064301 54 190 0.0 0.0 0.00 0.00 0.00 99 1018.6
20260906063755 54 190 0.0 0.0 0.00 0.00 0.00 99 1018.7
20260906063251 54 192 0.0 0.0 0.00 0.00 0.00 99 1018.7
20260906062745 54 181 0.0 0.0 0.00 0.00 0.00 99 1018.8
20260906062245 54 179 0.0 0.0 0.00 0.00 0.00 99 1018.8
20260906061741 54 182 0.0 0.0 0.00 0.00 0.00 99 1018.6
20260906061237 55 190 0.0 0.0 0.00 0.00 0.00 99 1018.7
20260906060732 55 177 0.0 0.0 0.00 0.00 0.00 99 1018.7
20260906060230 55 192 0.0 0.0 0.00 0.00 0.00 99 1018.1
20260906055725 55 190 0.0 0.0 0.00 0.00 0.00 99 1018.5
20260906055220 55 189 0.0 0.0 0.00 0.00 0.00 99 1018.1
20260906054715 55 187 0.0 0.0 0.00 0.00 0.00 99 1018.3
20260906054210 55 192 0.0 0.0 0.00 0.00 0.00 99 1018.2
20260906053707 55 202 0.0 0.0 0.00 0.00 0.00 99 1018.2
20260906053202 55 200 0.0 0.0 0.00 0.00 0.00 99 1018.3
20260906052657 55 191 0.0 0.0 0.00 0.00 0.00 99 1018.1
20260906052153 56 204 0.0 0.0 0.00 0.00 0.00 99 1018.2
20260906051650 56 204 0.0 0.0 0.00 0.00 0.00 99 1018.1
20260906051149 56 222 0.0 0.0 0.00 0.00 0.00 99 1018.3
20260906050645 56 212 0.0 0.0 0.00 0.00 0.00 99 1018.0
20260906050139 56 187 0.0 0.0 0.00 0.00 0.00 99 1018.2
20260906045638 56 233 0.0 0.0 0.00 0.00 0.00 99 1018.0
20260906045133 56 191 0.0 0.0 0.00 0.00 0.00 99 1017.9
20260906044630 56 209 0.0 0.0 0.00 0.00 0.00 99 1018.1
20260906044125 56 191 0.0 0.0 0.00 0.00 0.00 99 1018.5
20260906043621 56 193 0.0 0.0 0.00 0.00 0.00 99 1018.3
20260906043116 56 241 0.0 0.0 0.00 0.00 0.00 99 1018.2
20260906042615 56 214 0.0 0.0 0.00 0.00 0.00 99 1018.2
20260906042109 57 195 0.0 0.0 0.00 0.00 0.00 99 1017.8
20260906041606 57 196 0.0 0.0 0.00 0.00 0.00 99 1017.9
20260906041101 57 242 0.0 0.0 0.00 0.00 0.00 99 1017.9
20260906040556 57 235 0.0 0.0 0.00 0.00 0.00 99 1017.6
20260906040051 57 209 0.0 0.0 0.00 0.00 0.00 99 1017.8
20260906035547 57 182 0.0 0.0 0.00 0.00 0.00 99 1017.7
20260906035042 57 188 0.0 0.0 0.00 0.00 0.00 99 1017.8
20260906034542 57 204 0.0 0.0 0.00 0.00 0.00 99 1017.8
20260906034037 57 196 0.0 0.0 0.00 0.00 0.00 99 1017.8
20260906033532 58 196 0.0 0.0 0.00 0.00 0.00 99 1017.8
20260906033028 58 182 0.0 0.0 0.00 0.00 0.00 99 1017.8
20260906032525 58 203 0.0 0.0 0.00 0.00 0.00 99 1017.8
20260906032024 58 220 0.0 0.0 0.00 0.00 0.00 99 1017.6
20260906031520 58 204 0.0 0.0 0.00 0.00 0.00 99 1017.8
20260906031016 58 232 0.0 0.0 0.00 0.00 0.00 99 1017.7
20260906030515 59 212 0.0 0.0 0.00 0.00 0.00 99 1017.7
20260906030015 59 213 0.0 0.0 0.00 0.00 0.00 99 1017.5
20260906025514 59 215 0.0 0.0 0.00 0.00 0.00 99 1017.7
20260906025012 59 211 0.0 0.0 0.00 0.00 0.00 99 1017.6
20260906024508 59 209 0.0 0.0 0.00 0.00 0.00 99 1017.5
20260906024002 59 210 0.0 0.0 0.00 0.00 0.00 99 1017.3
20260906023458 59 211 0.0 0.0 0.00 0.00 0.00 99 1017.4
20260906022953 59 193 0.0 0.0 0.00 0.00 0.00 99 1017.4
20260906022448 60 183 0.0 0.0 0.00 0.00 0.00 99 1017.4
20260906021943 60 204 0.0 0.0 0.00 0.00 0.00 99 1017.3
20260906021438 60 205 0.0 0.0 0.00 0.00 0.00 99 1017.4
20260906020933 60 213 0.0 0.0 0.00 0.00 0.00 99 1017.5
20260906020427 60 229 0.0 0.0 0.00 0.00 0.00 99 1017.7
20260906015921 60 250 0.0 0.0 0.00 0.00 0.00 99 1017.7
20260906015421 60 256 0.0 0.0 0.00 0.00 0.00 99 1017.4
20260906014921 61 256 0.0 0.0 0.00 0.00 0.00 99 1017.4
20260906014420 61 256 0.0 0.0 0.00 0.00 0.00 99 1017.4
20260906013916 61 256 0.0 0.0 0.00 0.00 0.00 99 1017.4
20260906013412 62 256 0.0 0.0 0.00 0.00 0.00 99 1017.2
20260906012907 62 256 0.0 0.0 0.00 0.00 0.00 99 1017.4
20260906012402 62 258 0.0 0.0 0.00 0.00 0.00 99 1017.4
20260906011901 62 258 0.0 0.0 0.00 0.00 0.00 99 1017.3
20260906011356 62 258 0.0 0.0 0.00 0.00 0.00 99 1017.3
20260906010852 62 256 0.0 0.0 0.00 0.00 0.00 99 1017.2
20260906010348 62 256 0.0 0.0 0.00 0.00 0.00 99 1017.3
20260906005843 63 256 0.0 0.0 0.00 0.00 0.00 99 1017.3
20260906005343 63 278 0.0 0.0 0.00 0.00 0.00 99 1017.5
20260906004841 63 260 0.0 0.0 0.00 0.00 0.00 99 1017.4
20260906004342 63 258 0.0 0.0 0.00 0.00 0.00 99 1017.2
20260906003837 64 272 0.0 0.0 0.00 0.00 0.00 99 1017.7
20260906003332 64 134 0.0 0.0 0.00 0.00 0.00 99 1017.3
20260906002827 64 126 0.0 0.0 0.00 0.00 0.00 99 1017.3
20260906002326 65 144 0.0 0.0 0.00 0.00 0.00 99 1017.3
20260906001823 65 116 0.0 0.0 0.00 0.00 0.00 99 1017.5
20260906001318 65 177 0.0 0.0 0.00 0.00 0.00 99 1017.3
20260906000813 66 171 0.0 0.0 0.00 0.00 0.00 99 1017.4
20260906000307 66 167 0.0 0.0 0.00 0.00 0.00 99 1017.4
20260905235802 66 147 0.0 0.0 0.00 0.00 0.00 99 1017.3
20260905235306 66 169 0.0 0.0 0.00 0.00 0.00 98 1017.5
20260905234758 67 158 0.0 0.0 0.00 0.00 0.00 98 1017.4
20260905234253 67 138 0.0 0.0 0.00 0.00 0.00 98 1017.1
20260905233748 67 76 0.0 0.0 0.00 0.00 0.00 98 1017.4
20260905233248 67 93 0.0 0.0 0.00 0.00 0.00 97 1017.5
20260905232747 67 95 1.0 1.0 0.00 0.00 0.00 97 1017.5
20260905232243 67 105 0.0 0.0 0.00 0.00 0.00 97 1017.5
20260905231739 68 126 0.0 1.0 0.00 0.00 0.00 96 1017.4
20260905231234 68 82 0.0 0.0 0.00 0.00 0.00 96 1017.7
20260905230730 68 96 1.0 1.0 0.00 0.00 0.00 96 1017.4
20260905230228 68 74 0.0 0.0 0.00 0.00 0.00 96 1017.4
20260905225728 68 93 0.0 0.0 0.00 0.00 0.00 96 1017.4
20260905225223 68 112 0.0 1.0 0.00 0.00 0.00 96 1017.3
20260905224722 68 115 0.0 0.0 0.00 0.00 0.00 96 1017.2
20260905224217 68 95 0.0 0.0 0.00 0.00 0.00 96 1017.4
20260905223714 68 105 0.0 0.0 0.00 0.00 0.00 96 1017.3
20260905223210 68 134 1.0 1.0 0.00 0.00 0.00 96 1017.3
20260905222706 68 61 0.0 0.0 0.00 0.00 0.00 96 1017.2
20260905222205 68 196 1.0 1.0 0.00 0.00 0.00 95 1017.6
20260905221701 68 64 0.0 1.0 0.00 0.00 0.00 95 1017.5
20260905221158 69 99 0.0 0.0 0.00 0.00 0.00 95 1017.2
20260905220653 68 66 0.0 1.0 0.00 0.00 0.00 95 1017.3
20260905220149 68 44 0.0 1.0 0.00 0.00 0.00 95 1017.3
20260905215648 68 70 0.0 0.0 0.00 0.00 0.00 95 1017.2
20260905215144 68 50 1.0 1.0 0.00 0.00 0.00 95 1017.2
20260905214640 68 58 1.0 1.0 0.00 0.00 0.00 95 1017.3
20260905214135 68 66 0.0 0.0 0.00 0.00 0.00 95 1017.4
20260905213630 68 100 1.0 1.0 0.00 0.00 0.00 96 1017.4
20260905213125 68 213 0.0 0.0 0.00 0.00 0.00 96 1017.2
20260905212621 68 120 1.0 1.0 0.00 0.00 0.00 95 1017.0
20260905212120 69 135 1.0 1.0 0.00 0.00 0.00 96 1017.3
20260905211615 69 47 0.0 0.0 0.00 0.00 0.00 95 1017.1
20260905211111 68 46 1.0 1.0 0.00 0.00 0.00 95 1017.0
20260905210607 69 86 2.0 3.0 0.00 0.00 0.00 94 1016.9
20260905205601 69 80 1.0 1.0 0.00 0.00 0.00 93 1016.8
20260905205101 69 346 0.0 0.0 0.00 0.00 0.00 94 1016.8
20260905204555 69 182 1.0 1.0 0.00 0.00 0.00 94 1017.0
20260905204050 69 64 0.0 0.0 0.00 0.00 0.00 93 1016.9
20260905203550 70 212 0.0 1.0 0.00 0.00 0.00 92 1016.9
20260905203046 70 99 0.0 1.0 0.00 0.00 0.00 91 1017.3
20260905202540 70 341 1.0 2.0 0.00 0.00 0.00 93 1017.3
20260905202030 70 115 3.0 3.0 0.00 0.00 0.00 93 1017.3
20260905201526 70 144 1.0 1.0 0.00 0.00 0.00 93 1017.1
20260905201025 70 328 0.0 1.0 0.00 0.00 0.00 93 1017.3
20260905200521 70 268 0.0 1.0 0.00 0.00 0.00 92 1017.3
20260905200020 70 139 0.0 1.0 0.00 0.00 0.00 92 1017.3
20260905195514 70 236 2.0 2.0 0.00 0.00 0.00 91 1017.1
20260905195010 70 92 0.0 0.0 0.00 0.00 0.00 92 1017.2
20260905194504 70 39 0.0 0.0 0.00 0.00 0.00 91 1017.4
20260905194003 70 79 0.0 0.0 0.00 0.00 0.00 91 1017.4
20260905193458 71 226 0.0 1.0 0.00 0.00 0.00 91 1017.4
20260905192953 71 348 2.0 3.0 0.00 0.00 0.00 91 1017.0
20260905192448 71 48 1.0 2.0 0.00 0.00 0.00 90 1017.6
20260905191944 71 162 2.0 2.0 0.00 0.00 0.00 91 1017.4
20260905191438 71 326 0.0 0.0 0.00 0.00 0.00 90 1017.5
20260905190937 71 246 1.0 1.0 0.00 0.00 0.00 92 1017.6
20260905190435 71 64 0.0 0.0 0.00 0.00 0.00 91 1017.4
20260905185934 71 85 2.0 2.0 0.00 0.00 0.00 91 1017.6
20260905185429 71 205 1.0 2.0 0.00 0.00 0.00 90 1017.5
20260905184928 71 83 1.0 1.0 0.00 0.00 0.00 89 1017.7
20260905184423 72 241 1.0 1.0 0.00 0.00 0.00 89 1017.4
20260905183921 72 228 0.0 0.0 0.00 0.00 0.00 89 1017.5
20260905183416 72 237 1.0 1.0 0.00 0.00 0.00 88 1017.5